Skip Page Navigation
NASA JPL Caltech
NASA Logo - Jet Propulsion Laboratory + View the NASA Portal
+ Near-Earth Object (NEO) Program
Search JPL
JPL Home Earth Solar System Stars & Galaxies Technology
JPL Solar System Dynamics
BODIES ORBITS EPHEMERIDES TOOLS PHYSICAL DATA DISCOVERY FAQ SITE MAP
JPL Small-Body Database Browser
Search: [ help ]  
129157 (2005 ET305)
Classification: Main-belt Asteroid          SPK-ID: 2129157
Ephemeris | Orbit Diagram | Orbital Elements | Physical Parameters | Discovery Circumstances ]

[ hide orbit diagram ]
Orbit Diagram
Note: Make sure you have Java enabled on your browser to see the applet. This applet is provided as a 3D orbit visualization tool. The applet was implemented using 2-body methods, and hence should not be used for determining accurate long-term trajectories (over several years or decades) or planetary encounter circumstances. For accurate long-term ephemerides, please instead use our Horizons system.
Orbit Viewer

Additional Notes: the orbits shown in the applet are color coded. The planets are white lines, and the asteroid/comet is a blue line. The bright white line indicates the portion of the orbit that is above the ecliptic plane, and the darker portion is below the ecliptic plane. Likewise for the asteroid/comet orbit, the light blue indicates the portion above the ecliptic plane, and the dark blue the portion below the ecliptic plane.

Orbit Viewer applet originally written and kindly provided by Osamu Ajiki (AstroArts), and further modified by Ron Baalke (JPL).


Orbital Elements at Epoch 2456400.5 (2013-Apr-18.0) TDB
Reference: MPO254054 (heliocentric ecliptic J2000)
 Element Value Uncertainty (1-sigma)   Units 
e 0.1582321 n/a  
a 2.4457288 n/a AU
q 2.0587360 n/a AU
i 1.84334 n/a deg
node 133.19837 n/a deg
peri 128.79667 n/a deg
M 341.97321 n/a deg
tp 2456470.4562895
(2013-Jun-26.95628950)
n/a JED
period 1397.0465195
3.82
n/a
n/a
d
yr
n 0.25768648 n/a deg/d
Q 2.8327216 n/a AU
  Orbit Determination Parameters
   # obs. used (total)      176  
   first obs. used      1960-??-??  
   last obs. used      2013-02-13  
   # oppositions      11  
   planetary ephem.      DE403  
   condition code      0  
   fit RMS      0.41  
   data source      MPC:mpu  
   producer      MPCLINUX  

Additional Information
 T_jup = 3.481 

Ephemeris | Orbit Diagram | Orbital Elements | Physical Parameters | Discovery Circumstances ]

Physical Parameter Table
Parameter Symbol Value Units Sigma Reference Notes
absolute magnitude H 16.9 mag n/a MPO254054  

129157 (2005 ET305)          Discovered 2005-Mar-10 by Calvin-Rehoboth at Calvin-Rehoboth (G98)
Reference: 20060314/Numbers.arcLast Updated: 2006-03-23

Alternate Designations
 2005 ET305 = 1998 QV58 
Ephemeris | Orbit Diagram | Orbital Elements | Physical Parameters | Discovery Circumstances ]
ABOUT SSD CREDITS/AWARDS PRIVACY/COPYRIGHT GLOSSARY LINKS
FirstGov 2013-Jun-19 13:48 UT
(server date/time)  
NASA Home Page
Site Manager:   Donald K. Yeomans
Webmaster  Alan B. Chamberlin